Date,TemperatureHighF,TemperatureAvgF,TemperatureLowF,DewpointHighF,DewpointAvgF,DewpointLowF,HumidityHigh,HumidityAvg,HumidityLow,PressureMaxIn,PressureMinIn,WindSpeedMaxMPH,WindSpeedAvgMPH,GustSpeedMaxMPH,PrecipitationSumIn
2013-1-1,37.0,31.9,24.0,-99.9,-99.9,-99.9,0,0,100,0.00,40.00,9,5,12,0.00
2013-1-2,41.0,27.3,15.0,-99.9,-99.9,-99.9,0,0,100,0.00,40.00,6,2,9,0.00
2013-1-3,48.0,32.1,17.0,-99.9,-99.9,-99.9,0,0,100,0.00,40.00,5,1,7,0.00
2013-1-4,52.0,32.8,16.0,-57.0,-99.6,-99.9,0,0,100,0.00,40.00,7,2,14,0.00
2013-1-5,51.0,38.6,30.0,-99.9,-99.9,-99.9,0,0,100,0.00,40.00,9,3,17,0.00
2013-1-6,50.0,35.3,24.0,-99.9,-99.9,-99.9,0,0,100,0.00,40.00,8,2,11,0.00
2013-1-7,53.0,35.7,17.0,-99.9,-99.9,-99.9,0,0,100,0.00,40.00,11,3,16,0.00
2013-1-8,56.0,41.9,28.0,-99.9,-99.9,-99.9,0,0,100,0.00,40.00,10,3,14,0.00
2013-1-9,55.0,50.7,45.0,-99.9,-99.9,-99.9,0,0,100,0.00,40.00,9,5,12,0.00
2013-1-10,56.0,51.4,48.0,-99.9,-99.9,-99.9,0,0,100,0.00,40.00,8,4,13,0.00
2013-1-11,71.0,55.8,44.0,-99.9,-99.9,-99.9,0,0,100,0.00,40.00,15,8,23,0.00
2013-1-12,60.0,40.5,27.0,-99.9,-99.9,-99.9,0,0,100,0.00,40.00,14,7,24,0.00
2013-1-13,31.0,23.8,15.0,-99.9,-99.9,-99.9,0,0,100,0.00,40.00,0,0,0,0.00
2013-1-14,34.0,24.7,15.0,-99.9,-99.9,-99.9,0,0,100,0.00,40.00,10,4,14,0.00
2013-1-15,36.0,26.7,19.0,-99.9,-99.9,-99.9,0,0,100,0.00,40.00,9,4,12,0.00
2013-1-16,54.0,30.7,15.0,-99.9,-99.9,-99.9,0,0,100,0.00,40.00,6,2,9,0.00
2013-1-17,53.0,37.5,23.0,-99.9,-99.9,-99.9,0,0,100,0.00,40.00,11,4,15,0.00
2013-1-18,59.0,41.0,25.0,-99.9,-99.9,-99.9,0,0,100,0.00,40.00,12,5,18,0.00
2013-1-19,69.0,47.2,35.0,-99.9,-99.9,-99.9,0,0,100,0.00,40.00,9,3,14,0.00
2013-1-20,69.0,46.0,30.0,-99.9,-99.9,-99.9,0,0,100,0.00,40.00,12,4,18,0.00
2013-1-21,41.0,31.2,24.0,-99.9,-99.9,-99.9,0,0,100,0.00,40.00,10,6,16,0.00
2013-1-22,52.0,33.7,18.0,-99.9,-99.9,-99.9,0,0,100,0.00,40.00,9,2,15,0.00
2013-1-23,64.0,42.3,25.0,-99.9,-99.9,-99.9,0,0,100,0.00,40.00,8,2,11,0.00
2013-1-24,48.0,42.1,37.0,-99.9,-99.9,-99.9,0,0,100,0.00,40.00,10,6,14,0.00
2013-1-25,51.0,39.2,33.0,-99.9,-99.9,-99.9,0,0,100,0.00,40.00,8,2,10,0.00
2013-1-26,56.0,43.7,29.0,-99.9,-99.9,-99.9,0,0,100,0.00,40.00,12,4,17,0.00
2013-1-27,61.0,53.6,46.0,-99.9,-99.9,-99.9,0,0,100,0.00,40.00,14,10,19,0.00
2013-1-28,74.0,67.9,57.0,-99.9,-99.9,-99.9,0,0,100,0.00,40.00,15,10,23,0.00
2013-1-29,69.0,59.3,43.0,-99.9,-99.9,-99.9,0,0,100,0.00,40.00,15,8,25,0.00
2013-1-30,43.0,36.8,24.0,-99.9,-99.9,-99.9,0,0,100,0.00,40.00,15,7,25,0.00
2013-1-31,49.0,35.4,23.0,-99.9,-99.9,-99.9,0,0,100,0.00,40.00,15,8,20,0.00
2013-2-1,45.0,28.5,15.0,-99.9,-99.9,-99.9,0,0,100,0.00,40.00,10,4,14,0.00
2013-2-2,62.0,41.7,23.0,-99.9,-99.9,-99.9,0,0,100,0.00,40.00,8,2,11,0.00
2013-2-3,58.0,47.3,37.0,-99.9,-99.9,-99.9,0,0,100,0.00,40.00,7,4,11,0.00
2013-2-4,69.0,54.6,41.0,-99.9,-99.9,-99.9,0,0,100,0.00,40.00,9,4,12,0.00
2013-2-5,71.0,47.1,27.0,-99.9,-99.9,-99.9,0,0,100,0.00,40.00,5,1,8,0.00
2013-2-6,64.0,49.7,31.0,-99.9,-99.9,-99.9,0,0,100,0.00,40.00,15,5,22,0.00
2013-2-7,63.0,52.2,43.0,-99.9,-99.9,-99.9,0,0,100,0.00,40.00,12,6,18,0.00
2013-2-8,58.0,41.0,34.0,-99.9,-99.9,-99.9,0,0,100,0.00,40.00,11,4,16,0.00
2013-2-9,46.0,40.3,32.0,-99.9,-99.9,-99.9,0,0,100,0.00,40.00,12,7,19,0.00
2013-2-10,64.0,52.5,42.0,-99.9,-99.9,-99.9,0,0,100,0.00,40.00,12,7,22,0.00
2013-2-11,54.0,41.4,33.0,-99.9,-99.9,-99.9,0,0,100,0.00,40.00,8,2,14,0.00
2013-2-12,43.0,36.8,30.0,-99.9,-99.9,-99.9,0,0,100,0.00,40.00,9,3,13,0.00
2013-2-13,59.0,43.1,35.0,-99.9,-99.9,-99.9,0,0,100,0.00,40.00,7,3,12,0.00
2013-2-14,61.0,47.3,35.0,-99.9,-99.9,-99.9,0,0,100,0.00,40.00,12,4,24,0.00
2013-2-15,46.0,36.2,24.0,-99.9,-99.9,-99.9,0,0,100,0.00,40.00,12,6,18,0.00
2013-2-16,45.0,34.5,25.0,-99.9,-99.9,-99.9,0,0,100,0.00,40.00,13,4,18,0.00
2013-2-17,70.0,49.8,30.0,-99.9,-99.9,-99.9,0,0,100,0.00,40.00,13,7,20,0.00
2013-2-18,64.0,54.1,38.0,-99.9,-99.9,-99.9,0,0,100,0.00,40.00,17,11,27,0.00
2013-2-19,55.0,38.5,22.0,-99.9,-99.9,-99.9,0,0,100,0.00,40.00,9,2,13,0.00
2013-2-20,37.0,34.3,31.0,-99.9,-99.9,-99.9,0,0,100,0.00,40.00,8,3,12,0.00
2013-2-21,36.0,33.8,30.0,-99.9,-99.9,-99.9,0,0,100,0.00,40.00,10,6,17,0.00
2013-2-22,42.0,30.0,22.0,-99.9,-99.9,-99.9,0,0,100,0.00,40.00,8,4,18,0.00
2013-2-23,53.0,32.6,18.0,-99.9,-99.9,-99.9,0,0,100,0.00,40.00,3,1,7,0.00
2013-2-24,60.0,42.1,22.0,-99.9,-99.9,-99.9,0,0,100,0.00,40.00,13,4,20,0.00
2013-2-25,43.0,39.2,33.0,-99.9,-99.9,-99.9,0,0,100,0.00,40.00,17,8,25,0.00
2013-2-26,42.0,37.0,33.0,-99.9,-99.9,-99.9,0,0,100,0.00,40.00,13,8,23,0.00
2013-2-27,49.0,37.9,32.0,-99.9,-99.9,-99.9,0,0,100,0.00,40.00,13,7,20,0.00
2013-2-28,50.0,37.6,30.0,-99.9,-99.9,-99.9,0,0,100,0.00,40.00,11,7,16,0.00
2013-3-1,37.0,34.7,30.0,-99.9,-99.9,-99.9,0,0,100,0.00,40.00,10,7,16,0.00
2013-3-2,53.0,34.1,25.0,-99.9,-99.9,-99.9,0,0,100,0.00,40.00,9,4,13,0.00
2013-3-3,62.0,45.5,26.0,-99.9,-99.9,-99.9,0,0,100,0.00,40.00,15,7,22,0.00
2013-3-4,78.0,58.0,46.0,-99.9,-99.9,-99.9,0,0,100,0.00,40.00,17,8,26,0.00
2013-3-5,51.0,42.0,36.0,-99.9,-99.9,-99.9,0,0,100,0.00,40.00,16,10,27,0.00
2013-3-6,57.0,38.9,26.0,-99.9,-99.9,-99.9,0,0,100,0.00,40.00,8,2,11,0.00
2013-3-7,67.0,49.9,30.0,-99.9,-99.9,-99.9,0,0,100,0.00,40.00,14,6,20,0.00
2013-3-8,60.0,53.2,43.0,-99.9,-99.9,-99.9,0,0,100,0.00,40.00,14,8,20,0.00
2013-3-9,65.0,58.6,54.0,-99.9,-99.9,-99.9,0,0,100,0.00,40.00,17,8,26,0.00
2013-3-10,55.0,43.5,32.0,-99.9,-99.9,-99.9,0,0,100,0.00,40.00,12,8,20,0.00
2013-3-11,56.0,39.5,29.0,-99.9,-99.9,-99.9,0,0,100,0.00,40.00,10,5,15,0.00
2013-3-12,61.0,46.0,31.0,-99.9,-99.9,-99.9,0,0,100,0.00,40.00,9,3,17,0.00
2013-3-13,63.0,42.1,26.0,-99.9,-99.9,-99.9,0,0,100,0.00,40.00,8,1,10,0.00
2013-3-14,80.0,56.4,37.0,-99.9,-99.9,-99.9,0,0,100,0.00,40.00,11,4,16,0.00
2013-3-15,85.0,66.4,46.0,-99.9,-99.9,-99.9,0,0,100,0.00,40.00,12,6,19,0.00
2013-3-16,80.0,62.3,50.0,-99.9,-99.9,-99.9,0,0,100,0.00,40.00,15,6,20,0.00
2013-3-17,50.0,44.6,42.0,-99.9,-99.9,-99.9,0,0,100,0.00,40.00,14,6,21,0.00
2013-3-18,61.0,47.0,39.0,-99.9,-99.9,-99.9,0,0,100,0.00,40.00,11,5,16,0.00
2013-3-19,64.0,46.6,32.0,-99.9,-99.9,-99.9,0,0,100,0.00,40.00,14,4,21,0.00
2013-3-20,54.0,42.2,32.0,-99.9,-99.9,-99.9,0,0,100,0.00,40.00,12,4,17,0.00
2013-3-21,43.0,39.0,32.0,-99.9,-99.9,-99.9,0,0,100,0.00,40.00,12,6,18,0.00
2013-3-22,46.0,41.3,37.0,-99.9,-99.9,-99.9,0,0,100,0.00,40.00,9,5,12,0.00
2013-3-23,44.0,41.6,39.0,-99.9,-99.9,-99.9,0,0,100,0.00,40.00,9,4,11,0.00
2013-3-24,42.0,35.5,31.0,-99.9,-99.9,-99.9,0,0,100,0.00,40.00,15,9,25,0.00
2013-3-25,42.0,33.8,28.0,-99.9,-99.9,-99.9,0,0,100,0.00,40.00,12,8,20,0.00
2013-3-26,57.0,36.7,24.0,-99.9,-99.9,-99.9,0,0,100,0.00,40.00,7,2,12,0.00
2013-3-27,67.0,47.1,28.0,-99.9,-99.9,-99.9,0,0,100,0.00,40.00,15,5,24,0.00
2013-3-28,75.0,58.6,43.0,-99.9,-99.9,-99.9,0,0,100,0.00,40.00,12,6,19,0.00
2013-3-29,73.0,59.7,48.0,-99.9,-99.9,-99.9,0,0,100,0.00,40.00,9,3,13,0.00
2013-3-30,76.0,63.0,55.0,-99.9,-99.9,-99.9,0,0,100,0.00,40.00,12,7,18,0.00
2013-3-31,72.0,59.7,48.0,-99.9,-99.9,-99.9,0,0,100,0.00,40.00,15,4,27,0.00
2013-4-1,61.0,49.3,39.0,-99.9,-99.9,-99.9,0,0,100,0.00,40.00,14,7,19,0.00
2013-4-2,45.0,40.6,38.0,-99.9,-99.9,-99.9,0,0,100,0.00,40.00,12,9,18,0.00
2013-4-3,47.0,42.1,40.0,-99.9,-99.9,-99.9,0,0,100,0.00,40.00,10,5,14,0.00
2013-4-4,61.0,48.3,39.0,-99.9,-99.9,-99.9,0,0,100,0.00,40.00,9,3,15,0.00
2013-4-5,71.0,55.7,36.0,-99.9,-99.9,-99.9,0,0,100,0.00,40.00,9,4,13,0.00
2013-4-6,80.0,64.7,55.0,-99.9,-99.9,-99.9,0,0,100,0.00,40.00,16,8,25,0.00
2013-4-7,71.0,62.7,51.0,-99.9,-99.9,-99.9,0,0,100,0.00,40.00,14,7,21,0.00
2013-4-8,74.0,67.9,63.0,-99.9,-99.9,-99.9,0,0,100,0.00,40.00,12,8,19,0.00
2013-4-9,82.0,72.9,57.0,-99.9,-99.9,-99.9,0,0,100,0.00,40.00,14,9,22,0.00
2013-4-10,55.0,40.4,37.0,-99.9,-99.9,-99.9,0,0,100,0.00,40.00,13,8,20,0.00
2013-4-11,60.0,44.2,35.0,-99.9,-99.9,-99.9,0,0,100,0.00,40.00,9,5,15,0.00
2013-4-12,70.0,48.6,35.0,-99.9,-99.9,-99.9,0,0,100,0.00,40.00,9,3,18,0.00
2013-4-13,72.0,56.3,46.0,-99.9,-99.9,-99.9,0,0,100,0.00,40.00,12,5,18,0.00
2013-4-14,81.0,67.3,53.0,-99.9,-99.9,-99.9,0,0,100,0.00,40.00,20,9,31,0.00
2013-4-15,82.0,62.7,55.0,-99.9,-99.9,-99.9,0,0,100,0.00,40.00,12,8,17,0.00
2013-4-16,62.0,55.0,52.0,-33.0,-99.4,-99.9,0,0,100,0.00,40.00,12,6,18,0.00
2013-4-17,84.0,69.3,53.0,-99.9,-99.9,-99.9,0,0,100,0.00,40.00,16,7,25,0.00
2013-4-18,70.0,48.2,41.0,-99.9,-99.9,-99.9,0,0,100,0.00,40.00,15,9,24,0.00
2013-4-19,65.0,48.5,36.0,-99.9,-99.9,-99.9,0,0,100,0.00,40.00,10,5,19,0.00
2013-4-20,75.0,55.8,38.0,-99.9,-99.9,-99.9,0,0,100,0.00,40.00,12,4,18,0.00
2013-4-21,73.0,60.3,50.0,-99.9,-99.9,-99.9,0,0,100,0.00,40.00,11,5,19,0.00
2013-4-22,77.0,62.4,44.0,-99.9,-99.9,-99.9,0,0,100,0.00,40.00,13,6,20,0.00
2013-4-23,66.0,46.4,37.0,-99.9,-99.9,-99.9,0,0,100,0.00,40.00,12,8,20,0.00
2013-4-24,61.0,45.5,34.0,-99.9,-99.9,-99.9,0,0,100,0.00,40.00,9,4,16,0.00
2013-4-25,73.0,55.2,31.0,-99.9,-99.9,-99.9,0,0,100,0.00,40.00,7,2,11,0.00
2013-4-26,62.0,55.6,53.0,-99.9,-99.9,-99.9,0,0,100,0.00,40.00,12,6,55,0.00
2013-4-27,57.0,54.3,52.0,-99.9,-99.9,-99.9,0,0,100,0.00,40.00,12,3,17,0.00
2013-4-28,80.0,64.5,46.0,-99.9,-99.9,-99.9,0,0,100,0.00,40.00,7,2,10,0.00
2013-4-29,88.0,71.6,55.0,-99.9,-99.9,-99.9,0,0,100,0.00,40.00,12,6,20,0.00
2013-4-30,86.0,73.4,61.0,-99.9,-99.9,-99.9,0,0,100,0.00,40.00,13,7,21,0.00
2013-5-1,85.0,72.1,60.0,-99.9,-99.9,-99.9,0,0,100,0.00,40.00,12,5,18,0.00
2013-5-2,66.0,44.9,35.0,-99.9,-99.9,-99.9,0,0,100,0.00,40.00,15,10,27,0.00
2013-5-3,61.0,47.4,35.0,-99.9,-99.9,-99.9,0,0,100,0.00,40.00,14,7,25,0.00
2013-5-4,51.0,44.3,39.0,-99.9,-99.9,-99.9,0,0,100,0.00,40.00,10,5,18,0.00
2013-5-5,60.0,50.9,42.0,-99.9,-99.9,-99.9,0,0,100,0.00,40.00,7,4,11,0.00
2013-5-6,72.0,55.7,43.0,-99.9,-99.9,-99.9,0,0,100,0.00,40.00,7,2,10,0.00
2013-5-7,83.0,62.7,43.0,-99.9,-99.9,-99.9,0,0,100,0.00,40.00,5,1,9,0.00
2013-5-8,83.0,68.1,51.0,-99.9,-99.9,-99.9,0,0,100,0.00,40.00,11,4,19,0.00
2013-5-9,76.0,65.3,58.0,-99.9,-99.9,-99.9,0,0,100,0.00,40.00,14,4,26,0.00
2013-5-10,75.0,63.6,55.0,-31.0,-98.9,-99.9,0,0,100,0.00,40.00,12,4,30,0.00
2013-5-11,126.0,64.0,47.0,-99.9,-99.9,-99.9,0,0,100,0.00,40.00,12,4,18,0.05
2013-5-12,78.0,58.5,39.0,-99.9,-99.9,-99.9,0,0,100,0.00,40.00,6,1,10,0.00
2013-5-13,94.0,70.2,49.0,-99.9,-99.9,-99.9,0,0,100,0.00,40.00,9,3,15,0.00
2013-5-14,91.0,75.4,59.0,-99.9,-99.9,-99.9,0,0,100,0.00,40.00,11,6,19,0.00
2013-5-15,75.0,68.4,63.0,-99.9,-99.9,-99.9,0,0,100,0.00,40.00,12,5,23,0.00
2013-5-16,81.0,62.1,62.0,-99.9,-99.9,-99.9,0,0,100,0.00,40.00,7,2,10,0.00
2013-5-17,87.0,69.8,59.0,-99.9,-99.9,-99.9,0,0,100,0.00,40.00,7,2,10,0.00
2013-5-18,90.0,77.9,67.0,-99.9,-99.9,-99.9,0,0,100,0.00,40.00,10,5,18,0.00
2013-5-19,85.0,76.3,65.0,-99.9,-99.9,-99.9,0,0,100,0.00,40.00,13,8,25,0.00
2013-5-20,85.0,75.0,66.0,-99.9,-99.9,-99.9,0,0,100,0.00,40.00,16,6,23,0.00
2013-5-21,70.0,63.0,58.0,-99.9,-99.9,-99.9,0,0,100,0.00,40.00,18,4,28,0.00
2013-5-22,89.0,68.7,54.0,-99.9,-99.9,-99.9,0,0,100,0.00,40.00,57,3,57,0.00
2013-5-23,68.0,61.8,56.0,-99.9,-99.9,-99.9,0,0,100,0.00,40.00,13,2,29,0.00
2013-5-24,82.0,69.3,58.0,-99.9,-99.9,-99.9,0,0,100,0.00,40.00,9,4,13,0.00
2013-5-25,85.0,73.2,63.0,-99.9,-99.9,-99.9,0,0,100,0.00,40.00,11,7,17,0.00
2013-5-26,86.0,76.2,67.0,-99.9,-99.9,-99.9,0,0,100,0.00,40.00,13,7,20,0.00
2013-5-27,85.0,77.1,69.0,-99.9,-99.9,-99.9,0,0,100,0.00,40.00,15,10,24,0.00
2013-5-28,83.0,77.0,71.0,-99.9,-99.9,-99.9,0,0,100,0.00,40.00,15,9,24,0.00
2013-5-29,81.0,75.5,65.0,-99.9,-99.9,-99.9,0,0,100,0.00,40.00,15,9,23,0.00
2013-5-30,85.0,72.3,63.0,-99.9,-99.9,-99.9,0,0,100,0.00,40.00,17,8,25,0.00
2013-5-31,90.0,79.2,72.0,-99.9,-99.9,-99.9,0,0,100,0.00,40.00,151,11,151,0.00
2013-6-1,90.0,72.6,61.0,-99.9,-99.9,-99.9,0,0,100,0.00,40.00,12,4,20,0.00
2013-6-2,72.0,64.2,57.0,-99.9,-99.9,-99.9,0,0,100,0.00,40.00,8,4,12,0.00
2013-6-3,84.0,67.3,49.0,-99.9,-99.9,-99.9,0,0,100,0.00,40.00,8,3,11,0.00
2013-6-4,83.0,72.8,65.0,-99.9,-99.9,-99.9,0,0,100,0.00,40.00,15,5,26,0.00
2013-6-5,85.0,73.6,65.0,-99.9,-99.9,-99.9,0,0,100,0.00,40.00,9,4,17,0.00
2013-6-6,80.0,69.9,59.0,-99.9,-99.9,-99.9,0,0,100,0.00,40.00,10,4,13,0.00
2013-6-7,83.0,69.1,56.0,-99.9,-99.9,-99.9,0,0,100,0.00,40.00,8,2,12,0.00
2013-6-8,85.0,71.5,57.0,-99.9,-99.9,-99.9,0,0,100,0.00,40.00,11,4,19,0.00
2013-6-9,100.0,78.3,66.0,-99.9,-99.9,-99.9,0,0,100,0.00,40.00,12,3,20,0.00
2013-6-10,98.0,83.6,70.0,-99.9,-99.9,-99.9,0,0,100,0.00,40.00,8,4,14,0.00
2013-6-11,97.0,84.1,71.0,-99.9,-99.9,-99.9,0,0,100,0.00,40.00,11,6,18,0.00
2013-6-12,97.0,84.8,74.0,-99.9,-99.9,-99.9,0,0,100,0.00,40.00,12,7,21,0.00
2013-6-13,99.0,81.1,70.0,-99.9,-99.9,-99.9,0,0,100,0.00,40.00,7,2,9,0.00
2013-6-14,99.0,83.0,68.0,-99.9,-99.9,-99.9,0,0,100,0.00,40.00,9,4,15,0.00
2013-6-15,90.0,78.9,72.0,-99.9,-99.9,-99.9,0,0,100,0.00,40.00,67,5,67,0.00
2013-6-16,95.0,76.2,69.0,-99.9,-99.9,-99.9,0,0,100,0.00,40.00,8,3,12,0.00
2013-6-17,80.0,71.9,66.0,-99.9,-99.9,-99.9,0,0,100,0.00,40.00,10,3,17,0.00
2013-6-18,93.0,76.7,64.0,-99.9,-99.9,-99.9,0,0,100,0.00,40.00,7,2,10,0.00
2013-6-19,88.0,76.8,62.0,-99.9,-99.9,-99.9,0,0,100,0.00,40.00,11,4,15,0.00
2013-6-20,92.0,79.1,69.0,-99.9,-99.9,-99.9,0,0,100,0.00,40.00,11,6,17,0.00
2013-6-22,93.0,88.3,79.0,-99.9,-99.9,-99.9,0,0,100,0.00,40.00,12,9,19,0.00
2013-6-23,94.0,84.1,76.0,-99.9,-99.9,-99.9,0,0,100,0.00,40.00,13,1,27,0.00
2013-6-24,93.0,84.0,75.0,-99.9,-99.9,-99.9,0,0,100,0.00,40.00,12,7,20,0.00
2013-6-25,91.0,83.0,76.0,-99.9,-99.9,-99.9,0,0,100,0.00,40.00,15,8,24,0.00
2013-6-26,99.0,86.0,74.0,-99.9,-99.9,-99.9,0,0,100,0.00,40.00,9,5,15,0.00
2013-6-27,101.0,86.2,73.0,-99.9,-99.9,-99.9,0,0,100,0.00,40.00,53,3,14,0.00
2013-6-28,100.0,86.3,76.0,-99.9,-99.9,-99.9,0,0,100,0.00,40.00,9,4,13,0.00
2013-6-29,93.0,80.3,64.0,-99.9,-99.9,-99.9,0,0,100,0.00,40.00,13,5,20,0.00
2013-6-30,84.0,74.8,65.0,-99.9,-99.9,-99.9,0,0,100,0.00,40.00,13,6,21,0.00
2013-7-1,85.0,73.4,61.0,-99.9,-99.9,-99.9,0,0,100,0.00,40.00,11,5,16,0.00
2013-7-2,89.0,72.7,57.0,-99.9,-99.9,-99.9,0,0,100,0.00,40.00,9,3,13,0.00
2013-7-3,91.0,74.1,52.0,-99.9,-99.9,-99.9,0,0,100,0.00,40.00,7,2,11,0.00
2013-7-4,91.0,74.2,56.0,-99.9,-99.9,-99.9,0,0,100,0.00,40.00,10,3,14,0.00
2013-7-5,95.0,76.9,60.0,-99.9,-99.9,-99.9,0,0,100,0.00,40.00,9,3,13,0.00
2013-7-6,88.0,77.0,68.0,-99.9,-99.9,-99.9,0,0,100,0.00,40.00,9,4,14,0.00
2013-7-7,97.0,81.8,68.0,-99.9,-99.9,-99.9,0,0,100,0.00,40.00,9,4,16,0.00
2013-7-8,96.0,81.6,68.0,-99.9,-99.9,-99.9,0,0,100,0.00,40.00,9,4,14,0.00
2013-7-9,100.0,86.2,72.0,-99.9,-99.9,-99.9,0,0,100,0.00,40.00,10,4,19,0.00
2013-7-10,107.0,86.2,72.0,-99.9,-99.9,-99.9,0,0,100,0.00,40.00,8,2,13,0.00
2013-7-11,101.0,85.9,73.0,-99.9,-99.9,-99.9,0,0,100,0.00,40.00,9,2,14,0.00
2013-7-12,98.0,83.2,71.0,-99.9,-99.9,-99.9,0,0,100,0.00,40.00,9,4,16,0.00
2013-7-13,98.0,82.8,69.0,-99.9,-99.9,-99.9,0,0,100,0.00,40.00,9,4,13,0.00
2013-7-14,93.0,80.2,70.0,-99.9,-99.9,-99.9,0,0,100,0.00,40.00,9,3,14,0.00
2013-7-15,85.0,73.4,64.0,-99.9,-99.9,-99.9,0,0,100,0.00,40.00,12,4,19,0.00
2013-7-16,93.0,77.0,69.0,-99.9,-99.9,-99.9,0,0,100,0.00,40.00,8,2,10,0.00
2013-7-17,97.0,82.3,68.0,-99.9,-99.9,-99.9,0,0,100,0.00,40.00,8,3,15,0.00
2013-7-18,102.0,83.9,69.0,-99.9,-99.9,-99.9,0,0,100,0.00,40.00,6,2,11,0.00
2013-7-19,102.0,85.7,72.0,-99.9,-99.9,-99.9,0,0,100,0.00,40.00,7,3,10,0.00
2013-7-20,100.0,83.1,70.0,-99.9,-99.9,-99.9,0,0,100,0.00,40.00,9,4,16,0.00
2013-7-21,92.0,77.3,71.0,-99.9,-99.9,-99.9,0,0,100,0.00,40.00,12,4,17,0.00
2013-7-22,98.0,84.1,76.0,-99.9,-99.9,-99.9,0,0,100,0.00,40.00,11,4,18,0.00
2013-7-23,105.0,86.4,76.0,-99.9,-99.9,-99.9,0,0,100,0.00,40.00,7,3,12,0.00
2013-7-24,94.0,78.0,69.0,-99.9,-99.9,-99.9,0,0,100,0.00,40.00,18,4,25,0.00
2013-7-25,90.0,78.0,67.0,-99.9,-99.9,-99.9,0,0,100,0.00,40.00,5,1,8,0.00
2013-7-26,83.0,74.6,67.0,-99.9,-99.9,-99.9,0,0,100,0.00,40.00,10,4,13,0.00
2013-7-27,88.0,72.6,63.0,-99.9,-99.9,-99.9,0,0,100,0.00,40.00,7,2,10,0.00
2013-7-28,90.0,74.9,65.0,-99.9,-99.9,-99.9,0,0,100,0.00,40.00,32,3,32,0.00
2013-7-29,91.0,78.7,67.0,-99.9,-99.9,-99.9,0,0,100,0.00,40.00,13,6,20,0.00
2013-7-30,94.0,78.4,70.0,-99.9,-99.9,-99.9,0,0,100,0.00,40.00,10,3,20,0.00
2013-7-31,93.0,81.9,74.0,-99.9,-99.9,-99.9,0,0,100,0.00,40.00,8,2,13,0.00
2013-8-1,95.0,80.3,69.0,-99.9,-99.9,-99.9,0,0,100,0.00,40.00,6,1,8,0.00
2013-8-2,98.0,82.3,72.0,-99.9,-99.9,-99.9,0,0,100,0.00,40.00,10,4,14,0.00
2013-8-3,83.0,78.3,72.0,-99.9,-99.9,-99.9,0,0,100,0.00,40.00,13,4,19,0.00
2013-8-4,90.0,80.4,74.0,-99.9,-99.9,-99.9,0,0,100,0.00,40.00,9,4,14,0.00
2013-8-5,101.0,85.0,75.0,-99.9,-99.9,-99.9,0,0,100,0.00,40.00,8,5,14,0.00
2013-8-6,101.0,87.7,75.0,-99.9,-99.9,-99.9,0,0,100,0.00,40.00,8,4,13,0.00
2013-8-7,98.0,85.8,77.0,-99.9,-99.9,-99.9,0,0,100,0.00,40.00,8,4,12,0.00
2013-8-8,89.0,78.8,72.0,-99.9,-99.9,-99.9,0,0,100,0.00,40.00,10,3,17,0.00
2013-8-9,91.0,77.0,70.0,-99.9,-99.9,-99.9,0,0,100,0.00,40.00,10,4,15,0.00
2013-8-10,87.0,75.9,68.0,-99.9,-99.9,-99.9,0,0,100,0.00,40.00,8,4,11,0.00
2013-8-11,94.0,78.1,71.0,-99.9,-99.9,-99.9,0,0,100,0.00,40.00,4,1,7,0.00
2013-8-21,97.0,78.7,63.0,-99.9,-99.9,-99.9,0,0,100,0.00,40.00,6,2,10,0.00
2013-8-22,96.0,81.0,67.0,-99.9,-99.9,-99.9,0,0,100,0.00,40.00,5,2,9,0.00
2013-8-23,97.0,77.7,68.0,-99.9,-99.9,-99.9,0,0,100,0.00,40.00,10,1,15,0.00
2013-8-24,97.0,79.4,68.0,-99.9,-99.9,-99.9,0,0,100,0.00,40.00,8,2,12,0.00
2013-8-25,97.0,81.7,69.0,-99.9,-99.9,-99.9,0,0,100,0.00,40.00,6,2,10,0.00
2013-8-26,96.0,81.3,70.0,-99.9,-99.9,-99.9,0,0,100,0.00,40.00,8,2,11,0.00
2013-8-27,92.0,76.7,66.0,-99.9,-99.9,-99.9,0,0,100,0.00,40.00,8,3,11,0.00
2013-9-24,83.0,69.8,59.0,-99.9,-99.9,-99.9,0,0,100,0.00,40.00,9,4,17,0.00
2013-9-25,89.0,67.8,54.0,-99.9,-99.9,-99.9,0,0,100,0.00,40.00,4,1,7,0.00
2013-9-26,93.0,74.6,57.0,-99.9,-99.9,-99.9,0,0,100,0.00,40.00,11,5,17,0.00
2013-9-27,91.0,77.1,65.0,-99.9,-99.9,-99.9,0,0,100,0.00,40.00,12,6,18,0.00
2013-9-28,80.0,67.4,58.0,-99.9,-99.9,-99.9,0,0,100,0.00,40.00,12,6,20,0.00
2013-9-29,78.0,61.9,52.0,-99.9,-99.9,-99.9,0,0,100,0.00,40.00,8,2,12,0.00
2013-9-30,85.0,64.9,47.0,-99.9,-99.9,-99.9,0,0,100,0.00,40.00,7,2,10,0.00
2013-10-18,58.0,46.7,40.0,-99.9,-99.9,-99.9,0,0,100,0.00,40.00,10,5,16,0.00
2013-10-19,68.0,46.2,32.0,-99.9,-99.9,-99.9,0,0,100,0.00,40.00,8,2,12,0.00
2013-10-20,71.0,55.4,40.0,-99.9,-99.9,-99.9,0,0,100,0.00,40.00,11,5,20,0.00
2013-10-21,60.0,50.1,37.0,-99.9,-99.9,-99.9,0,0,100,0.00,40.00,10,3,14,0.00
2013-10-22,74.0,54.2,34.0,-99.9,-99.9,-99.9,0,0,100,0.00,40.00,8,2,15,0.00
2013-10-23,68.0,51.4,38.0,-99.9,-99.9,-99.9,0,0,100,0.00,40.00,7,2,11,0.00
2013-10-24,57.0,47.7,36.0,-99.9,-99.9,-99.9,0,0,100,0.00,40.00,13,5,18,0.00